Location: Newark
(35.2672°N, 80.7344°W)
Time: 03:34:10
(UTC+00:00)

Tiros 1 - Pass Details

Date: 22 January 2020
Orbit: 630 x 664 km, 48.4° (Epoch: 16 February)

Event Time Altitude Azimuth Distance (km) Brightness Sun altitude
Rises 23:00:22 0° 309° (NW) 2,974 11.0 -4.6°
Reaches altitude 10° 23:03:15 10° 326° (NW) 2,068 9.9 -5.1°
Maximum altitude 23:06:48 20° 14° (NNE) 1,502 8.7 -5.8°
Drops below altitude 10° 23:10:22 10° 63° (ENE) 2,076 9.1 -6.5°
Enters shadow 23:10:58 - 67° (ENE) 2,245 9.2 -6.6°
Sets 23:13:16 0° 80° (E) 2,990 - -7.0°
